| time (UTC) | temp F | wind direction | speed MPH | gust MPH | rain 1hr in | rain 24hr in | rain mn in | humidity % | barometer mb |
| 20260904191801 | 85 | 299 | 1.0 | 2.0 | 0.00 | 0.04 | 0.04 | 58 | 1015.2 |
| 20260904191257 | 85 | 246 | 2.0 | 2.0 | 0.00 | 0.04 | 0.04 | 55 | 1015.2 |
| 20260904190753 | 84 | 294 | 0.0 | 1.0 | 0.00 | 0.04 | 0.04 | 58 | 1015.2 |
| 20260904190249 | 84 | 352 | 2.0 | 3.0 | 0.00 | 0.04 | 0.04 | 57 | 1015.5 |
| 20260904185745 | 84 | 104 | 0.0 | 0.0 | 0.00 | 0.04 | 0.04 | 60 | 1015.5 |
| 20260904185240 | 84 | 332 | 3.0 | 6.0 | 0.00 | 0.04 | 0.04 | 59 | 1015.7 |
| 20260904184738 | 83 | 294 | 4.0 | 4.0 | 0.00 | 0.04 | 0.04 | 60 | 1015.6 |
| 20260904184235 | 83 | 39 | 1.0 | 2.0 | 0.00 | 0.04 | 0.04 | 60 | 1015.5 |
| 20260904183730 | 83 | 222 | 0.0 | 1.0 | 0.00 | 0.04 | 0.04 | 65 | 1015.5 |
| 20260904183225 | 82 | 19 | 1.0 | 3.0 | 0.00 | 0.04 | 0.04 | 63 | 1015.6 |
| 20260904182720 | 83 | 245 | 1.0 | 2.0 | 0.00 | 0.04 | 0.04 | 61 | 1015.6 |
| 20260904182215 | 84 | 174 | 1.0 | 1.0 | 0.00 | 0.04 | 0.04 | 61 | 1015.7 |
| 20260904181711 | 84 | 315 | 7.0 | 9.0 | 0.00 | 0.04 | 0.04 | 59 | 1015.6 |
| 20260904181210 | 82 | 256 | 3.0 | 3.0 | 0.00 | 0.04 | 0.04 | 61 | 1015.5 |
| 20260904180706 | 82 | 333 | 1.0 | 1.0 | 0.00 | 0.04 | 0.04 | 64 | 1015.7 |
| 20260904180201 | 82 | 302 | 2.0 | 2.0 | 0.00 | 0.04 | 0.04 | 64 | 1015.6 |
| 20260904175700 | 81 | 267 | 1.0 | 1.0 | 0.00 | 0.04 | 0.04 | 65 | 1015.4 |
| 20260904175159 | 81 | 353 | 1.0 | 2.0 | 0.00 | 0.04 | 0.04 | 65 | 1015.6 |
| 20260904174653 | 82 | 32 | 2.0 | 3.0 | 0.00 | 0.04 | 0.04 | 63 | 1015.5 |
| 20260904174149 | 84 | 134 | 0.0 | 1.0 | 0.00 | 0.04 | 0.04 | 64 | 1015.7 |
| 20260904173645 | 83 | 253 | 3.0 | 3.0 | 0.00 | 0.04 | 0.04 | 62 | 1015.5 |
| 20260904173140 | 83 | 249 | 7.0 | 11.0 | 0.00 | 0.04 | 0.04 | 63 | 1015.4 |
| 20260904172637 | 81 | 286 | 2.0 | 3.0 | 0.00 | 0.04 | 0.04 | 64 | 1015.5 |
| 20260904172135 | 82 | 21 | 2.0 | 3.0 | 0.00 | 0.04 | 0.04 | 63 | 1015.4 |
| 20260904171631 | 83 | 126 | 1.0 | 1.0 | 0.00 | 0.04 | 0.04 | 63 | 1015.4 |
| 20260904171126 | 84 | 280 | 2.0 | 3.0 | 0.00 | 0.04 | 0.04 | 63 | 1015.5 |
| 20260904170622 | 83 | 268 | 1.0 | 1.0 | 0.00 | 0.04 | 0.04 | 66 | 1015.5 |
| 20260904170118 | 83 | 327 | 3.0 | 4.0 | 0.00 | 0.04 | 0.04 | 64 | 1015.5 |
| 20260904165616 | 82 | 278 | 1.0 | 2.0 | 0.00 | 0.04 | 0.04 | 68 | 1015.8 |
| 20260904165115 | 82 | 222 | 0.0 | 1.0 | 0.00 | 0.04 | 0.04 | 67 | 1015.8 |
| 20260904164610 | 81 | 331 | 1.0 | 1.0 | 0.00 | 0.04 | 0.04 | 67 | 1015.8 |
| 20260904164106 | 81 | 269 | 1.0 | 2.0 | 0.00 | 0.04 | 0.04 | 67 | 1015.7 |
| 20260904163601 | 81 | 338 | 6.0 | 8.0 | 0.00 | 0.04 | 0.04 | 66 | 1015.5 |
| 20260904163056 | 82 | 170 | 2.0 | 4.0 | 0.00 | 0.04 | 0.04 | 63 | 1015.4 |
| 20260904162556 | 82 | 217 | 4.0 | 6.0 | 0.00 | 0.04 | 0.04 | 62 | 1015.6 |
| 20260904162051 | 82 | 353 | 2.0 | 3.0 | 0.00 | 0.04 | 0.04 | 64 | 1015.7 |
| 20260904161545 | 83 | 21 | 3.0 | 3.0 | 0.00 | 0.04 | 0.04 | 63 | 1015.6 |
| 20260904161041 | 82 | 326 | 3.0 | 4.0 | 0.00 | 0.04 | 0.04 | 64 | 1015.8 |
| 20260904160536 | 82 | 260 | 2.0 | 2.0 | 0.00 | 0.04 | 0.04 | 65 | 1015.8 |
| 20260904160032 | 82 | 270 | 1.0 | 2.0 | 0.00 | 0.04 | 0.04 | 65 | 1015.8 |
| 20260904155531 | 82 | 71 | 3.0 | 6.0 | 0.00 | 0.04 | 0.04 | 65 | 1015.7 |
| 20260904155026 | 82 | 254 | 5.0 | 7.0 | 0.00 | 0.04 | 0.04 | 64 | 1015.8 |
| 20260904154520 | 82 | 308 | 4.0 | 6.0 | 0.00 | 0.04 | 0.04 | 66 | 1015.7 |
| 20260904154015 | 82 | 23 | 5.0 | 6.0 | 0.00 | 0.04 | 0.04 | 65 | 1015.8 |
| 20260904153515 | 82 | 182 | 1.0 | 1.0 | 0.00 | 0.04 | 0.04 | 69 | 1016.0 |
| 20260904153012 | 81 | 294 | 5.0 | 9.0 | 0.00 | 0.04 | 0.04 | 67 | 1015.8 |
| 20260904152507 | 82 | 324 | 2.0 | 3.0 | 0.00 | 0.04 | 0.04 | 69 | 1016.0 |
| 20260904152002 | 81 | 13 | 4.0 | 6.0 | 0.00 | 0.04 | 0.04 | 69 | 1015.9 |
| 20260904151456 | 80 | 58 | 5.0 | 9.0 | 0.00 | 0.04 | 0.04 | 70 | 1016.2 |
| 20260904150951 | 81 | 5 | 6.0 | 9.0 | 0.00 | 0.04 | 0.04 | 70 | 1015.9 |
| 20260904150446 | 81 | 263 | 3.0 | 4.0 | 0.00 | 0.04 | 0.04 | 70 | 1015.9 |
| 20260904145944 | 81 | 109 | 0.0 | 0.0 | 0.00 | 0.04 | 0.04 | 72 | 1016.1 |
| 20260904145440 | 80 | 21 | 1.0 | 2.0 | 0.00 | 0.04 | 0.04 | 72 | 1016.1 |
| 20260904144935 | 80 | 282 | 4.0 | 4.0 | 0.00 | 0.04 | 0.04 | 71 | 1016.1 |
| 20260904144431 | 80 | 328 | 4.0 | 6.0 | 0.00 | 0.04 | 0.04 | 72 | 1016.0 |
| 20260904143926 | 80 | 349 | 3.0 | 3.0 | 0.00 | 0.04 | 0.04 | 72 | 1016.0 |
| 20260904143423 | 80 | 1 | 4.0 | 6.0 | 0.00 | 0.04 | 0.04 | 72 | 1016.0 |
| 20260904142919 | 80 | 305 | 3.0 | 4.0 | 0.00 | 0.04 | 0.04 | 74 | 1016.2 |
| 20260904142416 | 80 | 103 | 2.0 | 2.0 | 0.00 | 0.04 | 0.04 | 75 | 1016.1 |
| 20260904141914 | 80 | 267 | 0.0 | 1.0 | 0.00 | 0.04 | 0.04 | 74 | 1016.0 |
| 20260904141410 | 79 | 232 | 2.0 | 3.0 | 0.00 | 0.04 | 0.04 | 76 | 1016.1 |
| 20260904140906 | 79 | 216 | 2.0 | 3.0 | 0.00 | 0.04 | 0.04 | 76 | 1016.2 |
| 20260904140401 | 79 | 9 | 2.0 | 2.0 | 0.00 | 0.04 | 0.04 | 77 | 1016.1 |
| 20260904135900 | 80 | 215 | 2.0 | 2.0 | 0.00 | 0.04 | 0.04 | 77 | 1016.0 |
| 20260904135355 | 79 | 342 | 2.0 | 3.0 | 0.00 | 0.04 | 0.04 | 76 | 1015.9 |
| 20260904134851 | 79 | 209 | 0.0 | 1.0 | 0.00 | 0.04 | 0.04 | 79 | 1016.0 |
| 20260904134350 | 78 | 278 | 3.0 | 4.0 | 0.00 | 0.04 | 0.04 | 78 | 1015.8 |
| 20260904133845 | 78 | 1 | 3.0 | 3.0 | 0.00 | 0.04 | 0.04 | 79 | 1016.0 |
| 20260904133341 | 78 | 16 | 1.0 | 2.0 | 0.00 | 0.04 | 0.04 | 81 | 1015.8 |
| 20260904132840 | 77 | 212 | 0.0 | 0.0 | 0.00 | 0.04 | 0.04 | 82 | 1015.8 |
| 20260904132335 | 78 | 294 | 2.0 | 3.0 | 0.00 | 0.04 | 0.04 | 81 | 1016.1 |
| 20260904131830 | 77 | 290 | 0.0 | 1.0 | 0.00 | 0.04 | 0.04 | 82 | 1015.9 |
| 20260904131326 | 77 | 158 | 0.0 | 1.0 | 0.00 | 0.04 | 0.04 | 83 | 1015.9 |
| 20260904130825 | 76 | 63 | 2.0 | 3.0 | 0.00 | 0.04 | 0.04 | 83 | 1015.8 |
| 20260904130324 | 76 | 63 | 2.0 | 3.0 | 0.00 | 0.04 | 0.04 | 83 | 1015.8 |
| 20260904125820 | 76 | 237 | 2.0 | 3.0 | 0.00 | 0.04 | 0.04 | 83 | 1016.0 |
| 20260904125316 | 75 | 353 | 1.0 | 1.0 | 0.00 | 0.04 | 0.04 | 84 | 1016.1 |
| 20260904124815 | 75 | 349 | 2.0 | 3.0 | 0.00 | 0.04 | 0.04 | 84 | 1016.0 |
| 20260904124312 | 75 | 350 | 2.0 | 3.0 | 0.00 | 0.04 | 0.04 | 84 | 1015.8 |
| 20260904123807 | 75 | 19 | 3.0 | 3.0 | 0.00 | 0.04 | 0.04 | 84 | 1016.1 |
| 20260904123302 | 75 | 357 | 2.0 | 3.0 | 0.00 | 0.04 | 0.04 | 85 | 1016.2 |
| 20260904122757 | 74 | 237 | 0.0 | 1.0 | 0.00 | 0.04 | 0.04 | 86 | 1016.1 |
| 20260904122256 | 74 | 11 | 4.0 | 4.0 | 0.00 | 0.04 | 0.04 | 86 | 1015.9 |
| 20260904121752 | 74 | 312 | 2.0 | 2.0 | 0.00 | 0.04 | 0.04 | 87 | 1016.0 |
| 20260904121248 | 73 | 202 | 0.0 | 0.0 | 0.00 | 0.04 | 0.04 | 88 | 1015.9 |
| 20260904120744 | 73 | 28 | 2.0 | 3.0 | 0.00 | 0.04 | 0.04 | 88 | 1016.0 |
| 20260904120240 | 73 | 233 | 0.0 | 0.0 | 0.00 | 0.04 | 0.04 | 89 | 1015.9 |
| 20260904115735 | 73 | 236 | 0.0 | 0.0 | 0.00 | 0.04 | 0.04 | 89 | 1016.0 |
| 20260904115230 | 72 | 326 | 1.0 | 3.0 | 0.00 | 0.04 | 0.04 | 90 | 1016.1 |
| 20260904114725 | 72 | 306 | 1.0 | 2.0 | 0.00 | 0.04 | 0.04 | 91 | 1016.0 |
| 20260904114224 | 71 | 250 | 2.0 | 2.0 | 0.00 | 0.04 | 0.04 | 92 | 1016.0 |
| 20260904113720 | 71 | 11 | 1.0 | 1.0 | 0.00 | 0.04 | 0.04 | 93 | 1015.8 |
| 20260904113219 | 71 | 235 | 0.0 | 1.0 | 0.00 | 0.04 | 0.04 | 94 | 1015.7 |
| 20260904112714 | 71 | 234 | 1.0 | 1.0 | 0.00 | 0.04 | 0.04 | 94 | 1015.8 |
| 20260904112209 | 70 | 222 | 0.0 | 0.0 | 0.00 | 0.04 | 0.04 | 94 | 1015.8 |
| 20260904111705 | 70 | 218 | 0.0 | 0.0 | 0.00 | 0.04 | 0.04 | 94 | 1015.7 |
| 20260904111201 | 70 | 231 | 1.0 | 2.0 | 0.00 | 0.04 | 0.04 | 94 | 1015.5 |
| 20260904110656 | 70 | 228 | 0.0 | 0.0 | 0.00 | 0.04 | 0.04 | 94 | 1015.5 |
| 20260904110155 | 70 | 225 | 0.0 | 0.0 | 0.00 | 0.04 | 0.04 | 94 | 1015.4 |
| 20260904105650 | 70 | 220 | 0.0 | 0.0 | 0.00 | 0.04 | 0.04 | 94 | 1015.5 |
| 20260904105145 | 70 | 270 | 1.0 | 1.0 | 0.00 | 0.04 | 0.04 | 95 | 1015.6 |
| 20260904104641 | 70 | 309 | 0.0 | 1.0 | 0.00 | 0.04 | 0.04 | 95 | 1015.5 |
| 20260904104136 | 70 | 337 | 2.0 | 3.0 | 0.00 | 0.04 | 0.04 | 95 | 1015.3 |
| 20260904103632 | 70 | 349 | 2.0 | 2.0 | 0.00 | 0.04 | 0.04 | 95 | 1015.3 |
| 20260904103127 | 70 | 241 | 1.0 | 1.0 | 0.00 | 0.04 | 0.04 | 95 | 1015.3 |
| 20260904102624 | 71 | 290 | 2.0 | 2.0 | 0.00 | 0.04 | 0.04 | 95 | 1015.2 |
| 20260904102118 | 71 | 318 | 0.0 | 1.0 | 0.00 | 0.04 | 0.04 | 95 | 1015.1 |
| 20260904101615 | 71 | 247 | 1.0 | 1.0 | 0.00 | 0.04 | 0.04 | 95 | 1015.0 |
| 20260904101110 | 71 | 230 | 0.0 | 0.0 | 0.00 | 0.04 | 0.04 | 95 | 1015.2 |
| 20260904100606 | 71 | 227 | 0.0 | 0.0 | 0.00 | 0.04 | 0.04 | 95 | 1015.1 |
| 20260904100101 | 71 | 229 | 0.0 | 0.0 | 0.00 | 0.04 | 0.04 | 95 | 1014.8 |
| 20260904095555 | 71 | 229 | 0.0 | 0.0 | 0.00 | 0.04 | 0.04 | 95 | 1014.8 |
| 20260904095050 | 72 | 235 | 0.0 | 0.0 | 0.00 | 0.04 | 0.04 | 95 | 1014.8 |
| 20260904094545 | 72 | 232 | 0.0 | 0.0 | 0.00 | 0.04 | 0.04 | 95 | 1014.7 |
| 20260904094041 | 72 | 246 | 1.0 | 1.0 | 0.00 | 0.04 | 0.04 | 95 | 1014.7 |
| 20260904093538 | 72 | 233 | 0.0 | 0.0 | 0.00 | 0.04 | 0.04 | 95 | 1014.7 |
| 20260904093037 | 72 | 235 | 0.0 | 0.0 | 0.00 | 0.04 | 0.04 | 95 | 1014.7 |
| 20260904092533 | 72 | 227 | 0.0 | 0.0 | 0.00 | 0.04 | 0.04 | 95 | 1014.5 |
| 20260904092029 | 72 | 244 | 0.0 | 1.0 | 0.00 | 0.04 | 0.04 | 95 | 1014.5 |
| 20260904091525 | 72 | 225 | 0.0 | 0.0 | 0.00 | 0.04 | 0.04 | 95 | 1014.3 |
| 20260904091024 | 73 | 241 | 0.0 | 0.0 | 0.00 | 0.04 | 0.04 | 95 | 1014.7 |
| 20260904090520 | 73 | 226 | 0.0 | 0.0 | 0.00 | 0.04 | 0.04 | 95 | 1014.7 |
| 20260904090016 | 73 | 252 | 1.0 | 1.0 | 0.00 | 0.04 | 0.04 | 95 | 1014.9 |
| 20260904085511 | 73 | 235 | 0.0 | 0.0 | 0.00 | 0.04 | 0.04 | 95 | 1014.8 |
| 20260904085010 | 73 | 226 | 0.0 | 0.0 | 0.00 | 0.04 | 0.04 | 95 | 1014.6 |
| 20260904084506 | 73 | 222 | 0.0 | 1.0 | 0.00 | 0.04 | 0.04 | 95 | 1014.6 |
| 20260904084002 | 73 | 219 | 0.0 | 0.0 | 0.00 | 0.04 | 0.04 | 95 | 1014.9 |
| 20260904083458 | 73 | 235 | 0.0 | 0.0 | 0.00 | 0.04 | 0.04 | 95 | 1014.7 |
| 20260904082954 | 73 | 236 | 0.0 | 0.0 | 0.00 | 0.04 | 0.04 | 95 | 1014.5 |
| 20260904082449 | 73 | 230 | 0.0 | 0.0 | 0.00 | 0.04 | 0.04 | 95 | 1014.7 |
| 20260904081943 | 73 | 217 | 0.0 | 0.0 | 0.00 | 0.04 | 0.04 | 95 | 1014.4 |
| 20260904081438 | 73 | 215 | 0.0 | 1.0 | 0.00 | 0.04 | 0.04 | 95 | 1014.7 |
| 20260904080934 | 73 | 204 | 0.0 | 0.0 | 0.00 | 0.04 | 0.04 | 95 | 1014.4 |
| 20260904080429 | 74 | 198 | 0.0 | 0.0 | 0.00 | 0.04 | 0.04 | 95 | 1014.7 |
| 20260904075925 | 74 | 210 | 0.0 | 0.0 | 0.00 | 0.04 | 0.04 | 95 | 1014.7 |
| 20260904075421 | 73 | 217 | 0.0 | 0.0 | 0.00 | 0.04 | 0.04 | 95 | 1014.6 |
| 20260904074920 | 73 | 218 | 0.0 | 0.0 | 0.00 | 0.04 | 0.04 | 94 | 1014.8 |
| 20260904074415 | 73 | 231 | 0.0 | 0.0 | 0.00 | 0.04 | 0.04 | 94 | 1014.6 |
| 20260904073911 | 74 | 232 | 0.0 | 0.0 | 0.00 | 0.04 | 0.04 | 94 | 1014.8 |
| 20260904073406 | 74 | 231 | 0.0 | 0.0 | 0.00 | 0.04 | 0.04 | 94 | 1014.5 |
| 20260904072902 | 74 | 274 | 1.0 | 1.0 | 0.00 | 0.04 | 0.04 | 94 | 1014.5 |
| 20260904072356 | 74 | 223 | 0.0 | 0.0 | 0.00 | 0.04 | 0.04 | 94 | 1014.5 |
| 20260904071852 | 74 | 223 | 0.0 | 0.0 | 0.00 | 0.04 | 0.04 | 94 | 1014.5 |
| 20260904071348 | 74 | 223 | 0.0 | 0.0 | 0.00 | 0.04 | 0.04 | 94 | 1014.4 |
| 20260904070842 | 74 | 217 | 0.0 | 0.0 | 0.00 | 0.04 | 0.04 | 94 | 1014.3 |
| 20260904070341 | 74 | 230 | 0.0 | 0.0 | 0.00 | 0.04 | 0.04 | 94 | 1014.7 |
| 20260904065835 | 74 | 220 | 0.0 | 1.0 | 0.00 | 0.04 | 0.04 | 94 | 1014.5 |
| 20260904065332 | 74 | 222 | 0.0 | 0.0 | 0.00 | 0.04 | 0.04 | 94 | 1014.3 |
| 20260904064826 | 74 | 228 | 0.0 | 0.0 | 0.00 | 0.04 | 0.04 | 94 | 1014.6 |
| 20260904064323 | 74 | 223 | 0.0 | 0.0 | 0.00 | 0.04 | 0.04 | 94 | 1014.8 |
| 20260904063819 | 74 | 223 | 0.0 | 0.0 | 0.00 | 0.04 | 0.04 | 94 | 1014.9 |
| 20260904063314 | 74 | 223 | 0.0 | 0.0 | 0.00 | 0.04 | 0.04 | 94 | 1014.9 |
| 20260904062809 | 74 | 228 | 0.0 | 0.0 | 0.00 | 0.04 | 0.04 | 93 | 1015.2 |
| 20260904062306 | 74 | 233 | 0.0 | 0.0 | 0.00 | 0.04 | 0.04 | 93 | 1015.3 |
| 20260904061801 | 74 | 229 | 0.0 | 0.0 | 0.00 | 0.04 | 0.04 | 93 | 1015.2 |
| 20260904061257 | 74 | 205 | 0.0 | 0.0 | 0.00 | 0.04 | 0.04 | 93 | 1015.1 |
| 20260904060754 | 74 | 217 | 0.0 | 0.0 | 0.00 | 0.04 | 0.04 | 93 | 1015.0 |
| 20260904060249 | 74 | 226 | 0.0 | 0.0 | 0.12 | 0.04 | 0.04 | 93 | 1015.1 |
| 20260904055744 | 74 | 219 | 0.0 | 1.0 | 0.12 | 0.04 | 0.04 | 93 | 1015.1 |
| 20260904055239 | 74 | 213 | 0.0 | 0.0 | 0.00 | 0.02 | 0.02 | 93 | 1015.6 |
| 20260904054734 | 74 | 239 | 0.0 | 0.0 | 0.00 | 0.02 | 0.02 | 93 | 1015.6 |
| 20260904054230 | 74 | 220 | 0.0 | 0.0 | 0.00 | 0.02 | 0.02 | 92 | 1015.5 |
| 20260904053731 | 74 | 222 | 0.0 | 0.0 | 0.00 | 0.02 | 0.02 | 92 | 1015.6 |
| 20260904053225 | 74 | 223 | 0.0 | 0.0 | 0.00 | 0.02 | 0.02 | 92 | 1015.6 |
| 20260904052721 | 74 | 230 | 0.0 | 0.0 | 0.07 | 0.02 | 0.02 | 92 | 1015.8 |
| 20260904052217 | 74 | 234 | 0.0 | 0.0 | 0.12 | 0.02 | 0.02 | 92 | 1015.7 |
| 20260904051714 | 74 | 209 | 0.0 | 0.0 | 0.12 | 0.02 | 0.02 | 92 | 1015.7 |
| 20260904051208 | 74 | 328 | 5.0 | 7.0 | 0.00 | 0.00 | 0.00 | 92 | 1016.0 |
| 20260904050704 | 74 | 243 | 0.0 | 0.0 | 0.00 | 0.00 | 0.00 | 92 | 1015.6 |
| 20260904050200 | 75 | 226 | 0.0 | 0.0 | 0.00 | 0.00 | 0.00 | 91 | 1015.5 |
| 20260904045659 | 75 | 227 | 0.0 | 0.0 | 0.00 | 0.00 | 0.00 | 91 | 1015.6 |
| 20260904045154 | 75 | 223 | 0.0 | 0.0 | 0.00 | 0.00 | 0.00 | 91 | 1015.6 |
| 20260904044649 | 75 | 211 | 0.0 | 0.0 | 0.00 | 0.00 | 0.00 | 91 | 1015.5 |
| 20260904044146 | 75 | 260 | 0.0 | 0.0 | 0.00 | 0.00 | 0.00 | 90 | 1015.8 |
| 20260904043642 | 75 | 234 | 0.0 | 0.0 | 0.00 | 0.00 | 0.00 | 90 | 1016.2 |
| 20260904043137 | 75 | 197 | 0.0 | 0.0 | 0.00 | 0.00 | 0.00 | 90 | 1016.0 |
| 20260904042633 | 75 | 230 | 0.0 | 0.0 | 0.00 | 0.00 | 0.00 | 90 | 1016.2 |
| 20260904042128 | 74 | 228 | 0.0 | 0.0 | 0.00 | 0.00 | 0.00 | 91 | 1016.3 |
| 20260904041624 | 74 | 223 | 0.0 | 0.0 | 0.00 | 0.00 | 0.00 | 91 | 1016.1 |
| 20260904041120 | 74 | 226 | 0.0 | 0.0 | 0.00 | 0.00 | 0.00 | 91 | 1016.3 |
| 20260904040616 | 74 | 228 | 0.0 | 0.0 | 0.00 | 0.00 | 0.00 | 91 | 1016.5 |
| 20260904040112 | 74 | 231 | 0.0 | 0.0 | 0.00 | 0.18 | 0.18 | 91 | 1016.2 |
| 20260904035607 | 74 | 228 | 0.0 | 0.0 | 0.00 | 0.18 | 0.18 | 91 | 1016.1 |
| 20260904035107 | 74 | 227 | 0.0 | 0.0 | 0.00 | 0.18 | 0.18 | 91 | 1016.0 |
| 20260904034601 | 74 | 227 | 0.0 | 0.0 | 0.00 | 0.18 | 0.18 | 91 | 1015.9 |
| 20260904034057 | 74 | 229 | 0.0 | 0.0 | 0.00 | 0.18 | 0.18 | 91 | 1016.1 |
| 20260904033553 | 74 | 229 | 0.0 | 0.0 | 0.00 | 0.18 | 0.18 | 90 | 1016.1 |
| 20260904033050 | 74 | 230 | 0.0 | 0.0 | 0.00 | 0.18 | 0.18 | 90 | 1016.0 |
| 20260904032545 | 74 | 235 | 0.0 | 0.0 | 0.00 | 0.18 | 0.18 | 90 | 1016.1 |
| 20260904032044 | 74 | 213 | 0.0 | 0.0 | 0.00 | 0.18 | 0.18 | 90 | 1016.0 |
| 20260904031543 | 75 | 211 | 0.0 | 0.0 | 0.00 | 0.18 | 0.18 | 90 | 1016.0 |
| 20260904031040 | 75 | 211 | 0.0 | 0.0 | 0.00 | 0.18 | 0.18 | 90 | 1016.2 |
| 20260904030536 | 75 | 225 | 0.0 | 0.0 | 0.00 | 0.18 | 0.18 | 89 | 1016.1 |
| 20260904030031 | 75 | 226 | 0.0 | 0.0 | 0.00 | 0.18 | 0.18 | 89 | 1016.2 |
| 20260904025526 | 75 | 226 | 0.0 | 0.0 | 0.00 | 0.18 | 0.18 | 89 | 1016.2 |
| 20260904025021 | 75 | 225 | 0.0 | 0.0 | 0.00 | 0.18 | 0.18 | 89 | 1016.3 |
| 20260904024516 | 75 | 229 | 0.0 | 0.0 | 0.00 | 0.18 | 0.18 | 89 | 1016.4 |
| 20260904024012 | 75 | 223 | 0.0 | 0.0 | 0.00 | 0.18 | 0.18 | 89 | 1016.5 |
| 20260904023508 | 75 | 209 | 0.0 | 0.0 | 0.00 | 0.18 | 0.18 | 89 | 1016.6 |
| 20260904023003 | 75 | 207 | 0.0 | 0.0 | 0.00 | 0.18 | 0.18 | 89 | 1016.5 |
| 20260904022458 | 75 | 219 | 0.0 | 0.0 | 0.00 | 0.18 | 0.18 | 89 | 1016.7 |
| 20260904021955 | 75 | 222 | 0.0 | 0.0 | 0.00 | 0.18 | 0.18 | 89 | 1016.5 |
| 20260904021451 | 75 | 234 | 0.0 | 0.0 | 0.00 | 0.18 | 0.18 | 89 | 1016.7 |
| 20260904020950 | 75 | 226 | 0.0 | 0.0 | 0.00 | 0.18 | 0.18 | 89 | 1016.8 |
| 20260904020446 | 75 | 232 | 0.0 | 0.0 | 0.00 | 0.18 | 0.18 | 89 | 1016.8 |
| 20260904015944 | 75 | 227 | 0.0 | 0.0 | 0.00 | 0.18 | 0.18 | 89 | 1016.9 |
| 20260904015440 | 75 | 230 | 0.0 | 0.0 | 0.00 | 0.18 | 0.18 | 89 | 1016.7 |
| 20260904014938 | 75 | 227 | 0.0 | 0.0 | 0.00 | 0.18 | 0.18 | 88 | 1017.0 |
| 20260904014432 | 75 | 227 | 0.0 | 0.0 | 0.00 | 0.18 | 0.18 | 88 | 1016.9 |
| 20260904013929 | 75 | 231 | 0.0 | 0.0 | 0.00 | 0.18 | 0.18 | 88 | 1017.0 |
| 20260904013419 | 75 | 231 | 0.0 | 0.0 | 0.00 | 0.18 | 0.18 | 88 | 1016.7 |
| 20260904012915 | 75 | 223 | 0.0 | 0.0 | 0.00 | 0.18 | 0.18 | 88 | 1016.8 |
| 20260904012415 | 75 | 231 | 0.0 | 0.0 | 0.00 | 0.18 | 0.18 | 88 | 1017.0 |
| 20260904011909 | 75 | 230 | 0.0 | 0.0 | 0.00 | 0.18 | 0.18 | 88 | 1017.1 |
| 20260904011404 | 75 | 225 | 0.0 | 0.0 | 0.00 | 0.18 | 0.18 | 88 | 1016.8 |
| 20260904010859 | 75 | 232 | 0.0 | 0.0 | 0.00 | 0.18 | 0.18 | 88 | 1016.8 |
| 20260904010356 | 75 | 225 | 0.0 | 0.0 | 0.00 | 0.18 | 0.18 | 87 | 1016.7 |
| 20260904005850 | 76 | 233 | 0.0 | 0.0 | 0.00 | 0.18 | 0.18 | 87 | 1016.8 |
| 20260904005346 | 76 | 223 | 0.0 | 0.0 | 0.00 | 0.18 | 0.18 | 87 | 1016.8 |
| 20260904004841 | 76 | 239 | 0.0 | 0.0 | 0.00 | 0.18 | 0.18 | 87 | 1016.8 |
| 20260904004337 | 76 | 218 | 0.0 | 0.0 | 0.00 | 0.18 | 0.18 | 87 | 1017.0 |
| 20260904003832 | 76 | 234 | 0.0 | 0.0 | 0.00 | 0.18 | 0.18 | 86 | 1017.2 |
| 20260904003328 | 76 | 229 | 0.0 | 0.0 | 0.00 | 0.18 | 0.18 | 86 | 1016.7 |
| 20260904002823 | 76 | 234 | 0.0 | 0.0 | 0.00 | 0.18 | 0.18 | 86 | 1016.7 |
| 20260904002319 | 76 | 228 | 0.0 | 0.0 | 0.00 | 0.18 | 0.18 | 85 | 1016.5 |
| 20260904001818 | 77 | 223 | 0.0 | 0.0 | 0.00 | 0.18 | 0.18 | 85 | 1016.4 |
| 20260904001314 | 77 | 223 | 0.0 | 0.0 | 0.00 | 0.18 | 0.18 | 85 | 1016.6 |
| 20260904000809 | 77 | 223 | 0.0 | 0.0 | 0.00 | 0.18 | 0.18 | 84 | 1016.5 |
| 20260904000308 | 77 | 226 | 0.0 | 0.0 | 0.00 | 0.18 | 0.18 | 82 | 1016.8 |
| 20260903235802 | 78 | 216 | 0.0 | 0.0 | 0.00 | 0.18 | 0.18 | 81 | 1016.7 |
| 20260903235259 | 78 | 216 | 0.0 | 0.0 | 0.00 | 0.18 | 0.18 | 81 | 1016.6 |
| 20260903234757 | 78 | 219 | 0.0 | 0.0 | 0.00 | 0.18 | 0.18 | 79 | 1016.3 |
| 20260903234254 | 79 | 217 | 0.0 | 0.0 | 0.00 | 0.18 | 0.18 | 78 | 1016.4 |
| 20260903233750 | 79 | 215 | 0.0 | 0.0 | 0.00 | 0.18 | 0.18 | 77 | 1016.1 |
| 20260903233246 | 80 | 199 | 0.0 | 0.0 | 0.00 | 0.18 | 0.18 | 76 | 1016.1 |
| 20260903232744 | 79 | 164 | 1.0 | 2.0 | 0.00 | 0.18 | 0.18 | 77 | 1015.9 |
| 20260903232241 | 80 | 207 | 0.0 | 0.0 | 0.00 | 0.18 | 0.18 | 77 | 1016.1 |
| 20260903231739 | 80 | 207 | 0.0 | 0.0 | 0.00 | 0.18 | 0.18 | 76 | 1016.1 |
| 20260903231235 | 80 | 207 | 0.0 | 0.0 | 0.00 | 0.18 | 0.18 | 76 | 1016.1 |
| 20260903230731 | 81 | 207 | 0.0 | 0.0 | 0.00 | 0.18 | 0.18 | 75 | 1016.2 |
| 20260903230225 | 81 | 207 | 0.0 | 0.0 | 0.00 | 0.18 | 0.18 | 74 | 1016.2 |
| 20260903225722 | 81 | 208 | 0.0 | 0.0 | 0.00 | 0.18 | 0.18 | 74 | 1016.3 |
| 20260903225218 | 82 | 208 | 0.0 | 0.0 | 0.00 | 0.18 | 0.18 | 73 | 1016.4 |
| 20260903224714 | 82 | 208 | 0.0 | 0.0 | 0.00 | 0.18 | 0.18 | 73 | 1016.3 |
| 20260903224210 | 82 | 210 | 0.0 | 0.0 | 0.00 | 0.18 | 0.18 | 72 | 1016.6 |
| 20260903223705 | 83 | 208 | 0.0 | 0.0 | 0.00 | 0.18 | 0.18 | 72 | 1016.6 |
| 20260903223204 | 83 | 193 | 0.0 | 0.0 | 0.00 | 0.18 | 0.18 | 70 | 1016.7 |
| 20260903222704 | 84 | 202 | 0.0 | 0.0 | 0.00 | 0.18 | 0.18 | 70 | 1016.6 |
| 20260903222203 | 84 | 187 | 1.0 | 1.0 | 0.00 | 0.18 | 0.18 | 69 | 1016.6 |
| 20260903221658 | 84 | 218 | 0.0 | 0.0 | 0.00 | 0.18 | 0.18 | 70 | 1016.7 |
| 20260903221156 | 84 | 216 | 0.0 | 0.0 | 0.00 | 0.18 | 0.18 | 70 | 1016.3 |
| 20260903220655 | 84 | 130 | 2.0 | 2.0 | 0.00 | 0.18 | 0.18 | 69 | 1016.7 |
| 20260903220149 | 84 | 139 | 1.0 | 2.0 | 0.00 | 0.18 | 0.18 | 71 | 1016.5 |
| 20260903215649 | 84 | 210 | 0.0 | 0.0 | 0.00 | 0.18 | 0.18 | 70 | 1016.6 |
| 20260903215144 | 84 | 185 | 1.0 | 1.0 | 0.00 | 0.18 | 0.18 | 70 | 1016.5 |
| 20260903214642 | 84 | 183 | 1.0 | 1.0 | 0.00 | 0.18 | 0.18 | 70 | 1016.4 |
| 20260903214138 | 84 | 188 | 1.0 | 1.0 | 0.00 | 0.18 | 0.18 | 70 | 1016.5 |
| 20260903213633 | 84 | 151 | 3.0 | 3.0 | 0.00 | 0.18 | 0.18 | 69 | 1016.2 |
| 20260903213129 | 85 | 231 | 0.0 | 0.0 | 0.00 | 0.18 | 0.18 | 70 | 1016.3 |
| 20260903212625 | 85 | 211 | 0.0 | 0.0 | 0.00 | 0.18 | 0.18 | 70 | 1016.4 |
| 20260903212120 | 84 | 210 | 0.0 | 0.0 | 0.00 | 0.18 | 0.18 | 71 | 1016.4 |
| 20260903211614 | 85 | 137 | 3.0 | 3.0 | 0.00 | 0.18 | 0.18 | 69 | 1016.5 |
| 20260903211112 | 84 | 231 | 0.0 | 0.0 | 0.00 | 0.18 | 0.18 | 72 | 1016.7 |
| 20260903210606 | 83 | 203 | 0.0 | 0.0 | 0.00 | 0.18 | 0.18 | 72 | 1016.5 |
| 20260903205601 | 84 | 177 | 2.0 | 2.0 | 0.00 | 0.18 | 0.18 | 71 | 1016.5 |
| 20260903205055 | 84 | 214 | 0.0 | 0.0 | 0.00 | 0.18 | 0.18 | 70 | 1016.6 |
| 20260903204552 | 85 | 114 | 2.0 | 3.0 | 0.00 | 0.18 | 0.18 | 69 | 1016.4 |
| 20260903204046 | 85 | 136 | 1.0 | 1.0 | 0.00 | 0.18 | 0.18 | 69 | 1016.5 |
| 20260903203542 | 85 | 150 | 1.0 | 2.0 | 0.00 | 0.18 | 0.18 | 71 | 1016.4 |
| 20260903203041 | 85 | 205 | 0.0 | 0.0 | 0.00 | 0.18 | 0.18 | 68 | 1016.6 |
| 20260903202537 | 84 | 228 | 0.0 | 0.0 | 0.00 | 0.18 | 0.18 | 69 | 1016.4 |
| 20260903202032 | 84 | 248 | 0.0 | 0.0 | 0.00 | 0.18 | 0.18 | 69 | 1016.8 |
| 20260903201527 | 85 | 257 | 1.0 | 1.0 | 0.00 | 0.18 | 0.18 | 70 | 1016.8 |
| 20260903201026 | 85 | 265 | 0.0 | 1.0 | 0.00 | 0.18 | 0.18 | 69 | 1016.4 |
| 20260903200521 | 85 | 219 | 0.0 | 0.0 | 0.00 | 0.18 | 0.18 | 69 | 1016.5 |
| 20260903200016 | 85 | 191 | 0.0 | 0.0 | 0.00 | 0.18 | 0.18 | 70 | 1016.6 |
| 20260903195512 | 85 | 243 | 0.0 | 0.0 | 0.00 | 0.18 | 0.18 | 69 | 1016.6 |
| 20260903195008 | 85 | 286 | 0.0 | 1.0 | 0.00 | 0.18 | 0.18 | 69 | 1016.5 |
| 20260903194503 | 85 | 29 | 2.0 | 2.0 | 0.00 | 0.18 | 0.18 | 69 | 1016.8 |
| 20260903193958 | 85 | 247 | 1.0 | 1.0 | 0.00 | 0.18 | 0.18 | 68 | 1016.7 |
| 20260903193454 | 85 | 226 | 0.0 | 0.0 | 0.00 | 0.18 | 0.18 | 69 | 1016.8 |
| 20260903192949 | 86 | 215 | 0.0 | 0.0 | 0.00 | 0.18 | 0.18 | 68 | 1016.8 |
| 20260903192446 | 86 | 254 | 1.0 | 1.0 | 0.00 | 0.18 | 0.18 | 67 | 1016.9 |